Time,TemperatureF,DewpointF,PressureIn,WindDirection,WindDirectionDegrees,WindSpeedMPH,WindSpeedGustMPH,Humidity,HourlyPrecipIn,Conditions,Clouds,dailyrainin,SolarRadiationWatts/m^2,SoftwareType,DateUTC
2013-09-03 00:02:00,78.9,73.7,29.87,NW,321,0.0,0.0,84,0.00,,,0.00,0.00,VWS V14.01,2013-09-03 05:02:00,
2013-09-03 00:07:00,78.7,73.5,29.87,NW,321,0.0,1.0,84,0.00,,,0.00,0.00,VWS V14.01,2013-09-03 05:07:00,
2013-09-03 00:12:00,78.7,73.5,29.87,NW,321,0.0,0.0,84,0.00,,,0.00,0.00,VWS V14.01,2013-09-03 05:12:00,
2013-09-03 00:17:00,78.7,73.5,29.87,NW,321,0.0,0.0,84,0.00,,,0.00,0.00,VWS V14.01,2013-09-03 05:17:00,
2013-09-03 00:22:00,78.5,73.3,29.87,NW,321,0.0,0.0,84,0.00,,,0.00,0.00,VWS V14.01,2013-09-03 05:22:00,
2013-09-03 00:27:00,78.4,73.2,29.87,NW,321,0.0,0.0,84,0.00,,,0.00,0.00,VWS V14.01,2013-09-03 05:27:00,
2013-09-03 00:32:00,78.2,73.3,29.87,NW,321,0.0,0.0,85,0.00,,,0.00,0.00,VWS V14.01,2013-09-03 05:32:00,
2013-09-03 00:37:00,78.0,73.1,29.87,NW,321,0.0,0.0,85,0.00,,,0.00,0.00,VWS V14.01,2013-09-03 05:37:00,
2013-09-03 00:42:00,77.8,72.9,29.87,NW,321,0.0,0.0,85,0.00,,,0.00,0.00,VWS V14.01,2013-09-03 05:42:00,
2013-09-03 00:47:00,77.7,73.2,29.87,NW,321,0.0,0.0,86,0.00,,,0.00,0.00,VWS V14.01,2013-09-03 05:47:00,
2013-09-03 00:52:00,77.5,73.0,29.87,NW,321,0.0,0.0,86,0.00,,,0.00,0.00,VWS V14.01,2013-09-03 05:52:00,
2013-09-03 00:57:00,77.4,73.2,29.88,NW,321,0.0,0.0,87,0.00,,,0.00,0.00,VWS V14.01,2013-09-03 05:57:00,
2013-09-03 01:02:00,77.2,72.7,29.88,NW,321,0.0,0.0,86,0.00,,,0.00,0.00,VWS V14.01,2013-09-03 06:02:00,
2013-09-03 01:07:00,77.1,72.6,29.88,NW,321,0.0,1.0,86,0.00,,,0.00,0.00,VWS V14.01,2013-09-03 06:07:00,
2013-09-03 01:12:00,77.0,72.5,29.88,NW,321,0.0,1.0,86,0.00,,,0.00,0.00,VWS V14.01,2013-09-03 06:12:00,
2013-09-03 01:17:00,76.9,72.4,29.87,NW,321,0.0,1.0,86,0.00,,,0.00,0.00,VWS V14.01,2013-09-03 06:17:00,
2013-09-03 01:22:00,76.9,72.4,29.88,NW,321,0.0,0.0,86,0.00,,,0.00,0.00,VWS V14.01,2013-09-03 06:22:00,
2013-09-03 01:27:00,76.9,72.7,29.87,NW,321,0.0,1.0,87,0.00,,,0.00,0.00,VWS V14.01,2013-09-03 06:27:00,
2013-09-03 01:32:00,76.8,72.6,29.88,NW,321,0.0,1.0,87,0.00,,,0.00,0.00,VWS V14.01,2013-09-03 06:32:00,
2013-09-03 01:37:00,76.9,72.7,29.88,NW,321,0.0,1.0,87,0.00,,,0.00,0.00,VWS V14.01,2013-09-03 06:37:00,
2013-09-03 01:42:00,76.9,72.7,29.88,NW,321,0.0,0.0,87,0.00,,,0.00,0.00,VWS V14.01,2013-09-03 06:42:00,
2013-09-03 01:47:00,76.8,72.6,29.88,NW,321,0.0,0.0,87,0.00,,,0.00,0.00,VWS V14.01,2013-09-03 06:47:00,
2013-09-03 01:52:00,76.8,72.6,29.88,NW,321,0.0,0.0,87,0.00,,,0.00,0.00,VWS V14.01,2013-09-03 06:52:00,
2013-09-03 01:57:00,76.7,72.5,29.88,NW,321,0.0,0.0,87,0.00,,,0.00,0.00,VWS V14.01,2013-09-03 06:57:00,
2013-09-03 02:02:00,76.7,72.5,29.88,NW,321,0.0,0.0,87,0.00,,,0.00,0.00,VWS V14.01,2013-09-03 07:02:00,
2013-09-03 02:07:00,76.6,72.4,29.88,NW,321,0.0,0.0,87,0.00,,,0.00,0.00,VWS V14.01,2013-09-03 07:07:00,
2013-09-03 02:12:00,76.5,72.3,29.88,NW,321,0.0,0.0,87,0.00,,,0.00,0.00,VWS V14.01,2013-09-03 07:12:00,
2013-09-03 02:17:00,76.4,72.2,29.88,NW,321,0.0,0.0,87,0.00,,,0.00,0.00,VWS V14.01,2013-09-03 07:17:00,
2013-09-03 02:22:00,76.3,72.5,29.88,NW,321,0.0,2.0,88,0.00,,,0.00,0.00,VWS V14.01,2013-09-03 07:22:00,
2013-09-03 02:27:00,76.3,72.5,29.88,NW,321,0.0,2.0,88,0.00,,,0.00,0.00,VWS V14.01,2013-09-03 07:27:00,
2013-09-03 02:32:00,76.2,72.1,29.88,NW,321,0.0,2.0,87,0.00,,,0.00,0.00,VWS V14.01,2013-09-03 07:32:00,
2013-09-03 02:37:00,76.2,72.1,29.89,NW,321,0.0,2.0,87,0.00,,,0.00,0.00,VWS V14.01,2013-09-03 07:37:00,
2013-09-03 02:42:00,76.1,71.9,29.89,NW,323,1.0,2.0,87,0.00,,,0.00,0.00,VWS V14.01,2013-09-03 07:42:00,
2013-09-03 02:47:00,76.0,71.9,29.89,NW,322,0.0,2.0,87,0.00,,,0.00,0.00,VWS V14.01,2013-09-03 07:47:00,
2013-09-03 02:52:00,76.0,71.9,29.89,NW,322,0.0,1.0,87,0.00,,,0.00,0.00,VWS V14.01,2013-09-03 07:52:00,
2013-09-03 02:57:00,75.9,71.8,29.89,NW,323,0.0,1.0,87,0.00,,,0.00,0.00,VWS V14.01,2013-09-03 07:57:00,
2013-09-03 03:02:00,75.9,71.8,29.89,NW,323,0.0,0.0,87,0.00,,,0.00,0.00,VWS V14.01,2013-09-03 08:02:00,
2013-09-03 03:07:00,75.8,72.0,29.89,NW,323,0.0,3.0,88,0.00,,,0.00,0.00,VWS V14.01,2013-09-03 08:07:00,
2013-09-03 03:12:00,75.7,71.9,29.89,NW,323,0.0,1.0,88,0.00,,,0.00,0.00,VWS V14.01,2013-09-03 08:12:00,
2013-09-03 03:17:00,75.6,71.8,29.89,NNW,336,0.0,3.0,88,0.00,,,0.00,0.00,VWS V14.01,2013-09-03 08:17:00,
2013-09-03 03:22:00,75.5,71.7,29.89,NNW,336,0.0,2.0,88,0.00,,,0.00,0.00,VWS V14.01,2013-09-03 08:22:00,
2013-09-03 03:27:00,75.5,71.7,29.89,NNW,336,0.0,2.0,88,0.00,,,0.00,0.00,VWS V14.01,2013-09-03 08:27:00,
2013-09-03 03:32:00,75.4,71.6,29.89,NNW,336,0.0,0.0,88,0.00,,,0.00,0.00,VWS V14.01,2013-09-03 08:32:00,
2013-09-03 03:37:00,75.4,71.6,29.89,NNW,336,0.0,1.0,88,0.00,,,0.00,0.00,VWS V14.01,2013-09-03 08:37:00,
2013-09-03 03:42:00,75.3,71.5,29.89,NNW,337,1.0,1.0,88,0.00,,,0.00,0.00,VWS V14.01,2013-09-03 08:42:00,
2013-09-03 03:47:00,75.2,71.4,29.90,NNW,337,0.0,1.0,88,0.00,,,0.00,0.00,VWS V14.01,2013-09-03 08:47:00,
2013-09-03 03:52:00,75.1,71.3,29.90,NNW,337,0.0,1.0,88,0.00,,,0.00,0.00,VWS V14.01,2013-09-03 08:52:00,
2013-09-03 03:57:00,75.0,71.2,29.89,NNW,337,0.0,2.0,88,0.00,,,0.00,0.00,VWS V14.01,2013-09-03 08:57:00,
2013-09-03 04:02:00,74.9,71.1,29.89,NNW,337,0.0,2.0,88,0.00,,,0.00,0.00,VWS V14.01,2013-09-03 09:02:00,
2013-09-03 04:07:00,74.8,71.0,29.90,NNW,337,0.0,2.0,88,0.00,,,0.00,0.00,VWS V14.01,2013-09-03 09:07:00,
2013-09-03 04:12:00,74.7,70.9,29.90,NNW,339,0.0,0.0,88,0.00,,,0.00,0.00,VWS V14.01,2013-09-03 09:12:00,
2013-09-03 04:17:00,74.6,70.8,29.90,NNW,339,0.0,1.0,88,0.00,,,0.00,0.00,VWS V14.01,2013-09-03 09:17:00,
2013-09-03 04:22:00,74.5,70.7,29.90,NNW,338,0.0,0.0,88,0.00,,,0.00,0.00,VWS V14.01,2013-09-03 09:22:00,
2013-09-03 04:27:00,74.4,70.6,29.90,NNW,338,0.0,0.0,88,0.00,,,0.00,0.00,VWS V14.01,2013-09-03 09:27:00,
2013-09-03 04:32:00,74.3,70.8,29.90,NNW,339,0.0,1.0,89,0.00,,,0.00,0.00,VWS V14.01,2013-09-03 09:32:00,
2013-09-03 04:37:00,74.2,70.8,29.90,NNW,339,1.0,1.0,89,0.00,,,0.00,0.00,VWS V14.01,2013-09-03 09:37:00,
2013-09-03 04:42:00,74.1,70.7,29.90,North,355,0.0,1.0,89,0.00,,,0.00,0.00,VWS V14.01,2013-09-03 09:42:00,
2013-09-03 04:47:00,74.0,70.6,29.90,North,355,0.0,1.0,89,0.00,,,0.00,0.00,VWS V14.01,2013-09-03 09:47:00,
2013-09-03 04:52:00,73.9,70.5,29.90,North,355,0.0,1.0,89,0.00,,,0.00,0.00,VWS V14.01,2013-09-03 09:52:00,
2013-09-03 04:57:00,73.8,70.4,29.90,NE,41,0.0,3.0,89,0.00,,,0.00,0.00,VWS V14.01,2013-09-03 09:57:00,
2013-09-03 05:02:00,73.7,70.3,29.90,NE,41,0.0,1.0,89,0.00,,,0.00,0.00,VWS V14.01,2013-09-03 10:02:00,
2013-09-03 05:07:00,73.6,70.2,29.90,NE,41,0.0,1.0,89,0.00,,,0.00,0.00,VWS V14.01,2013-09-03 10:07:00,
2013-09-03 05:12:00,73.5,70.1,29.90,NE,41,0.0,0.0,89,0.00,,,0.00,0.00,VWS V14.01,2013-09-03 10:12:00,
2013-09-03 05:17:00,73.4,70.0,29.90,NE,41,0.0,2.0,89,0.00,,,0.00,0.00,VWS V14.01,2013-09-03 10:17:00,
2013-09-03 05:22:00,73.3,69.9,29.90,NE,41,0.0,2.0,89,0.00,,,0.00,0.00,VWS V14.01,2013-09-03 10:22:00,
2013-09-03 05:27:00,73.2,69.8,29.91,NE,41,0.0,2.0,89,0.00,,,0.00,0.00,VWS V14.01,2013-09-03 10:27:00,
2013-09-03 05:32:00,73.1,69.7,29.91,NE,41,0.0,1.0,89,0.00,,,0.00,0.00,VWS V14.01,2013-09-03 10:32:00,
2013-09-03 05:37:00,72.9,69.5,29.91,NE,41,0.0,1.0,89,0.00,,,0.00,0.00,VWS V14.01,2013-09-03 10:37:00,
2013-09-03 05:42:00,72.8,69.4,29.91,NE,41,0.0,1.0,89,0.00,,,0.00,0.00,VWS V14.01,2013-09-03 10:42:00,
2013-09-03 05:47:00,72.7,69.3,29.92,NE,41,0.0,1.0,89,0.00,,,0.00,0.00,VWS V14.01,2013-09-03 10:47:00,
2013-09-03 05:52:00,72.6,69.2,29.92,NE,41,0.0,1.0,89,0.00,,,0.00,0.00,VWS V14.01,2013-09-03 10:52:00,
2013-09-03 05:57:00,72.5,69.1,29.92,NE,41,0.0,1.0,89,0.00,,,0.00,0.00,VWS V14.01,2013-09-03 10:57:00,
2013-09-03 06:02:00,72.4,68.7,29.92,NE,41,0.0,0.0,88,0.00,,,0.00,0.00,VWS V14.01,2013-09-03 11:02:00,
2013-09-03 06:07:00,72.3,68.9,29.92,NE,41,1.0,1.0,89,0.00,,,0.00,0.00,VWS V14.01,2013-09-03 11:07:00,
2013-09-03 06:12:00,72.3,68.9,29.92,NE,41,0.0,0.0,89,0.00,,,0.00,0.00,VWS V14.01,2013-09-03 11:12:00,
2013-09-03 06:17:00,72.2,68.8,29.92,NE,40,0.0,0.0,89,0.00,,,0.00,0.00,VWS V14.01,2013-09-03 11:17:00,
2013-09-03 06:22:00,72.1,68.7,29.93,NE,41,0.0,1.0,89,0.00,,,0.00,0.00,VWS V14.01,2013-09-03 11:22:00,
2013-09-03 06:27:00,72.1,68.7,29.93,NE,41,0.0,1.0,89,0.00,,,0.00,0.00,VWS V14.01,2013-09-03 11:27:00,
2013-09-03 06:32:00,72.0,68.6,29.93,NE,41,0.0,0.0,89,0.00,,,0.00,0.00,VWS V14.01,2013-09-03 11:32:00,
2013-09-03 06:37:00,71.9,68.5,29.93,NE,40,0.0,1.0,89,0.00,,,0.00,5.00,VWS V14.01,2013-09-03 11:37:00,
2013-09-03 06:42:00,71.8,68.1,29.93,NE,40,0.0,0.0,88,0.00,,,0.00,9.00,VWS V14.01,2013-09-03 11:42:00,
2013-09-03 06:47:00,71.8,68.1,29.93,NE,41,0.0,0.0,88,0.00,,,0.00,12.00,VWS V14.01,2013-09-03 11:47:00,
2013-09-03 06:52:00,71.8,68.1,29.93,NE,41,0.0,1.0,88,0.00,,,0.00,19.00,VWS V14.01,2013-09-03 11:52:00,
2013-09-03 06:57:00,72.0,68.3,29.93,NE,40,0.0,2.0,88,0.00,,,0.00,28.00,VWS V14.01,2013-09-03 11:57:00,
2013-09-03 07:02:00,72.2,68.4,29.94,NE,40,0.0,1.0,88,0.00,,,0.00,37.00,VWS V14.01,2013-09-03 12:02:00,
2013-09-03 07:07:00,72.6,68.5,29.94,NE,41,0.0,2.0,87,0.00,,,0.00,49.00,VWS V14.01,2013-09-03 12:07:00,
2013-09-03 07:12:00,73.1,68.7,29.94,NE,41,0.0,1.0,86,0.00,,,0.00,60.00,VWS V14.01,2013-09-03 12:12:00,
2013-09-03 07:17:00,73.4,68.6,29.95,NE,41,1.0,1.0,85,0.00,,,0.00,74.00,VWS V14.01,2013-09-03 12:17:00,
2013-09-03 07:22:00,73.8,69.0,29.94,NE,41,0.0,2.0,85,0.00,,,0.00,90.00,VWS V14.01,2013-09-03 12:22:00,
2013-09-03 07:26:00,74.1,69.0,29.95,NE,36,0.0,4.0,84,0.00,,,0.00,107.00,VWS V14.01,2013-09-03 12:26:00,
2013-09-03 07:31:00,74.4,68.9,29.95,NE,36,1.0,3.0,83,0.00,,,0.00,127.00,VWS V14.01,2013-09-03 12:31:00,
2013-09-03 07:36:00,74.6,68.8,29.95,ENE,76,1.0,4.0,82,0.00,,,0.00,148.00,VWS V14.01,2013-09-03 12:36:00,
2013-09-03 07:41:00,75.0,68.8,29.95,NE,52,2.0,2.0,81,0.00,,,0.00,165.00,VWS V14.01,2013-09-03 12:41:00,
2013-09-03 07:46:00,75.3,68.7,29.95,NE,53,1.0,3.0,80,0.00,,,0.00,188.00,VWS V14.01,2013-09-03 12:46:00,
2013-09-03 07:51:00,75.8,68.8,29.95,NE,54,0.0,2.0,79,0.00,,,0.00,209.00,VWS V14.01,2013-09-03 12:51:00,
2013-09-03 07:56:00,76.1,68.4,29.95,NE,54,0.0,3.0,77,0.00,,,0.00,225.00,VWS V14.01,2013-09-03 12:56:00,
2013-09-03 08:01:00,76.4,68.7,29.95,NE,53,0.0,2.0,77,0.00,,,0.00,243.00,VWS V14.01,2013-09-03 13:01:00,
2013-09-03 08:06:00,76.6,68.5,29.95,ENE,57,0.0,4.0,76,0.00,,,0.00,260.00,VWS V14.01,2013-09-03 13:06:00,
2013-09-03 08:11:00,76.9,68.4,29.95,East,82,2.0,5.0,75,0.00,,,0.00,274.00,VWS V14.01,2013-09-03 13:11:00,
2013-09-03 08:16:00,77.1,68.2,29.95,East,82,0.0,5.0,74,0.00,,,0.00,292.00,VWS V14.01,2013-09-03 13:16:00,
2013-09-03 08:21:00,77.4,68.1,29.95,East,79,1.0,5.0,73,0.00,,,0.00,311.00,VWS V14.01,2013-09-03 13:21:00,
2013-09-03 08:26:00,77.7,68.4,29.95,East,82,2.0,5.0,73,0.00,,,0.00,327.00,VWS V14.01,2013-09-03 13:26:00,
2013-09-03 08:31:00,78.1,67.9,29.96,East,94,2.0,6.0,71,0.00,,,0.00,345.00,VWS V14.01,2013-09-03 13:31:00,
2013-09-03 08:36:00,78.4,68.2,29.96,ENE,64,0.0,6.0,71,0.00,,,0.00,364.00,VWS V14.01,2013-09-03 13:36:00,
2013-09-03 08:41:00,78.7,67.7,29.96,East,87,2.0,6.0,69,0.00,,,0.00,378.00,VWS V14.01,2013-09-03 13:41:00,
2013-09-03 08:46:00,78.7,67.7,29.96,East,98,2.0,6.0,69,0.00,,,0.00,396.00,VWS V14.01,2013-09-03 13:46:00,
2013-09-03 08:51:00,78.7,67.7,29.96,East,80,3.0,5.0,69,0.00,,,0.00,413.00,VWS V14.01,2013-09-03 13:51:00,
2013-09-03 08:56:00,79.0,68.0,29.96,ESE,109,0.0,6.0,69,0.00,,,0.00,431.00,VWS V14.01,2013-09-03 13:56:00,
2013-09-03 09:01:00,79.6,67.7,29.96,East,90,3.0,3.0,67,0.00,,,0.00,448.00,VWS V14.01,2013-09-03 14:01:00,
2013-09-03 09:06:00,80.2,68.7,29.96,East,86,2.0,6.0,68,0.00,,,0.00,466.00,VWS V14.01,2013-09-03 14:06:00,
2013-09-03 09:11:00,80.7,68.3,29.96,East,98,5.0,6.0,66,0.00,,,0.00,483.00,VWS V14.01,2013-09-03 14:11:00,
2013-09-03 09:16:00,80.6,67.8,29.97,East,79,2.0,6.0,65,0.00,,,0.00,497.00,VWS V14.01,2013-09-03 14:16:00,
2013-09-03 09:21:00,80.8,67.5,29.96,East,90,7.0,7.0,64,0.00,,,0.00,515.00,VWS V14.01,2013-09-03 14:21:00,
2013-09-03 09:26:00,80.6,67.8,29.96,East,93,5.0,7.0,65,0.00,,,0.00,531.00,VWS V14.01,2013-09-03 14:26:00,
2013-09-03 09:31:00,80.6,67.8,29.97,East,96,0.0,5.0,65,0.00,,,0.00,547.00,VWS V14.01,2013-09-03 14:31:00,
2013-09-03 09:36:00,81.5,68.2,29.97,East,87,6.0,7.0,64,0.00,,,0.00,563.00,VWS V14.01,2013-09-03 14:36:00,
2013-09-03 09:41:00,81.6,68.2,29.97,East,80,7.0,7.0,64,0.00,,,0.00,580.00,VWS V14.01,2013-09-03 14:41:00,
2013-09-03 09:46:00,81.3,68.0,29.97,ESE,123,5.0,7.0,64,0.00,,,0.00,596.00,VWS V14.01,2013-09-03 14:46:00,
2013-09-03 09:51:00,81.7,68.3,29.97,SE,126,3.0,7.0,64,0.00,,,0.00,608.00,VWS V14.01,2013-09-03 14:51:00,
2013-09-03 09:56:00,81.9,68.1,29.97,East,96,1.0,7.0,63,0.00,,,0.00,622.00,VWS V14.01,2013-09-03 14:56:00,
2013-09-03 10:01:00,83.2,68.4,29.97,NNE,14,0.0,4.0,61,0.00,,,0.00,640.00,VWS V14.01,2013-09-03 15:01:00,
2013-09-03 10:06:00,83.7,68.3,29.97,SE,134,2.0,6.0,60,0.00,,,0.00,652.00,VWS V14.01,2013-09-03 15:06:00,
2013-09-03 10:11:00,83.7,68.3,29.98,East,92,0.0,3.0,60,0.00,,,0.00,668.00,VWS V14.01,2013-09-03 15:11:00,
2013-09-03 10:16:00,84.0,68.1,29.97,NE,49,0.0,5.0,59,0.00,,,0.00,686.00,VWS V14.01,2013-09-03 15:16:00,
2013-09-03 10:21:00,84.2,68.8,29.97,SE,136,2.0,5.0,60,0.00,,,0.00,693.00,VWS V14.01,2013-09-03 15:21:00,
2013-09-03 10:26:00,84.7,68.3,29.97,NNE,28,2.0,5.0,58,0.00,,,0.00,708.00,VWS V14.01,2013-09-03 15:26:00,
2013-09-03 10:31:00,84.5,67.1,29.98,East,95,1.0,5.0,56,0.00,,,0.00,722.00,VWS V14.01,2013-09-03 15:31:00,
2013-09-03 10:36:00,84.5,67.1,29.98,East,97,3.0,7.0,56,0.00,,,0.00,733.00,VWS V14.01,2013-09-03 15:36:00,
2013-09-03 10:41:00,84.8,67.4,29.98,North,355,2.0,5.0,56,0.00,,,0.00,745.00,VWS V14.01,2013-09-03 15:41:00,
2013-09-03 10:46:00,84.9,68.0,29.98,East,85,0.0,7.0,57,0.00,,,0.00,758.00,VWS V14.01,2013-09-03 15:46:00,
2013-09-03 10:51:00,85.6,67.1,29.98,East,90,0.0,6.0,54,0.00,,,0.00,768.00,VWS V14.01,2013-09-03 15:51:00,
2013-09-03 10:56:00,86.3,67.2,29.98,North,10,3.0,8.0,53,0.00,,,0.00,782.00,VWS V14.01,2013-09-03 15:56:00,
2013-09-03 11:01:00,86.3,67.7,29.98,NNE,32,0.0,5.0,54,0.00,,,0.00,791.00,VWS V14.01,2013-09-03 16:01:00,
2013-09-03 11:06:00,86.6,67.4,29.97,NE,40,4.0,6.0,53,0.00,,,0.00,803.00,VWS V14.01,2013-09-03 16:06:00,
2013-09-03 11:11:00,86.5,67.3,29.97,ENE,61,1.0,4.0,53,0.00,,,0.00,814.00,VWS V14.01,2013-09-03 16:11:00,
2013-09-03 11:16:00,86.0,66.9,29.97,East,95,5.0,8.0,53,0.00,,,0.00,824.00,VWS V14.01,2013-09-03 16:16:00,
2013-09-03 11:21:00,85.7,67.7,29.97,East,97,2.0,7.0,55,0.00,,,0.00,835.00,VWS V14.01,2013-09-03 16:21:00,
2013-09-03 11:26:00,85.7,67.7,29.97,ESE,123,8.0,8.0,55,0.00,,,0.00,840.00,VWS V14.01,2013-09-03 16:26:00,
2013-09-03 11:31:00,86.0,68.0,29.97,ENE,65,3.0,5.0,55,0.00,,,0.00,849.00,VWS V14.01,2013-09-03 16:31:00,
2013-09-03 11:36:00,86.4,67.8,29.97,ESE,103,7.0,10.0,54,0.00,,,0.00,858.00,VWS V14.01,2013-09-03 16:36:00,
2013-09-03 11:41:00,86.2,67.6,29.97,East,98,3.0,5.0,54,0.00,,,0.00,874.00,VWS V14.01,2013-09-03 16:41:00,
2013-09-03 11:46:00,86.5,66.8,29.97,NE,40,0.0,8.0,52,0.00,,,0.00,868.00,VWS V14.01,2013-09-03 16:46:00,
2013-09-03 11:51:00,87.1,66.8,29.97,East,90,0.0,9.0,51,0.00,,,0.00,875.00,VWS V14.01,2013-09-03 16:51:00,
2013-09-03 11:56:00,87.5,67.7,29.96,NNE,21,4.0,9.0,52,0.00,,,0.00,881.00,VWS V14.01,2013-09-03 16:56:00,
2013-09-03 12:01:00,87.7,67.3,29.97,NNE,15,2.0,5.0,51,0.00,,,0.00,891.00,VWS V14.01,2013-09-03 17:01:00,
2013-09-03 12:06:00,88.1,67.1,29.97,NE,48,2.0,6.0,50,0.00,,,0.00,896.00,VWS V14.01,2013-09-03 17:06:00,
2013-09-03 12:11:00,87.7,67.3,29.97,NW,325,5.0,7.0,51,0.00,,,0.00,898.00,VWS V14.01,2013-09-03 17:11:00,
2013-09-03 12:16:00,87.8,66.9,29.96,NNE,28,4.0,7.0,50,0.00,,,0.00,909.00,VWS V14.01,2013-09-03 17:16:00,
2013-09-03 12:21:00,88.1,67.1,29.96,NNW,344,5.0,5.0,50,0.00,,,0.00,898.00,VWS V14.01,2013-09-03 17:21:00,
2013-09-03 12:26:00,87.5,66.6,29.96,ENE,64,5.0,7.0,50,0.00,,,0.00,919.00,VWS V14.01,2013-09-03 17:26:00,
2013-09-03 12:31:00,87.1,66.8,29.96,NE,48,1.0,5.0,51,0.00,,,0.00,923.00,VWS V14.01,2013-09-03 17:31:00,
2013-09-03 12:36:00,87.4,65.9,29.96,NNW,327,4.0,6.0,49,0.00,,,0.00,919.00,VWS V14.01,2013-09-03 17:36:00,
2013-09-03 12:41:00,87.0,66.1,29.96,NNW,329,5.0,8.0,50,0.00,,,0.00,925.00,VWS V14.01,2013-09-03 17:41:00,
2013-09-03 12:46:00,87.2,66.3,29.96,NE,56,0.0,8.0,50,0.00,,,0.00,923.00,VWS V14.01,2013-09-03 17:46:00,
2013-09-03 12:51:00,87.5,67.2,29.95,East,82,2.0,5.0,51,0.00,,,0.00,923.00,VWS V14.01,2013-09-03 17:51:00,
2013-09-03 12:56:00,88.1,66.0,29.96,NW,318,8.0,8.0,48,0.00,,,0.00,940.00,VWS V14.01,2013-09-03 17:56:00,
2013-09-03 13:01:00,87.7,66.2,29.96,NW,310,6.0,7.0,49,0.00,,,0.00,932.00,VWS V14.01,2013-09-03 18:01:00,
2013-09-03 13:06:00,87.5,66.6,29.95,NNE,30,3.0,11.0,50,0.00,,,0.00,926.00,VWS V14.01,2013-09-03 18:06:00,
2013-09-03 13:11:00,87.9,66.9,29.95,WNW,299,10.0,11.0,50,0.00,,,0.00,914.00,VWS V14.01,2013-09-03 18:11:00,
2013-09-03 13:16:00,88.8,66.6,29.95,North,349,3.0,11.0,48,0.00,,,0.00,921.00,VWS V14.01,2013-09-03 18:16:00,
2013-09-03 13:21:00,88.7,66.5,29.95,NW,321,4.0,7.0,48,0.00,,,0.00,926.00,VWS V14.01,2013-09-03 18:21:00,
2013-09-03 13:26:00,88.6,67.0,29.95,NNW,334,7.0,8.0,49,0.00,,,0.00,925.00,VWS V14.01,2013-09-03 18:26:00,
2013-09-03 13:31:00,88.4,66.2,29.95,North,355,3.0,10.0,48,0.00,,,0.00,925.00,VWS V14.01,2013-09-03 18:31:00,
2013-09-03 13:36:00,87.7,66.2,29.95,NNE,13,2.0,10.0,49,0.00,,,0.00,926.00,VWS V14.01,2013-09-03 18:36:00,
2013-09-03 13:41:00,87.3,65.8,29.94,NW,317,2.0,6.0,49,0.00,,,0.00,912.00,VWS V14.01,2013-09-03 18:41:00,
2013-09-03 13:46:00,88.6,67.0,29.95,ESE,103,0.0,6.0,49,0.00,,,0.00,911.00,VWS V14.01,2013-09-03 18:46:00,
2013-09-03 13:51:00,89.0,66.8,29.95,NNW,338,6.0,10.0,48,0.00,,,0.00,909.00,VWS V14.01,2013-09-03 18:51:00,
2013-09-03 13:56:00,88.6,66.4,29.95,WNW,292,7.0,10.0,48,0.00,,,0.00,909.00,VWS V14.01,2013-09-03 18:56:00,
2013-09-03 14:01:00,88.1,66.0,29.95,NW,315,4.0,7.0,48,0.00,,,0.00,907.00,VWS V14.01,2013-09-03 19:01:00,
2013-09-03 14:06:00,88.0,65.3,29.95,NNW,342,3.0,12.0,47,0.00,,,0.00,904.00,VWS V14.01,2013-09-03 19:06:00,
2013-09-03 14:11:00,87.7,65.6,29.94,NNW,334,3.0,3.0,48,0.00,,,0.00,895.00,VWS V14.01,2013-09-03 19:11:00,
2013-09-03 14:16:00,87.9,65.8,29.94,NE,34,2.0,9.0,48,0.00,,,0.00,889.00,VWS V14.01,2013-09-03 19:16:00,
2013-09-03 14:21:00,88.3,65.5,29.94,WNW,303,5.0,6.0,47,0.00,,,0.00,882.00,VWS V14.01,2013-09-03 19:21:00,
2013-09-03 14:26:00,88.8,66.0,29.94,NNE,25,3.0,9.0,47,0.00,,,0.00,842.00,VWS V14.01,2013-09-03 19:26:00,
2013-09-03 14:31:00,88.8,66.0,29.94,WNW,301,4.0,5.0,47,0.00,,,0.00,863.00,VWS V14.01,2013-09-03 19:31:00,
2013-09-03 14:36:00,88.7,66.5,29.93,ENE,62,3.0,9.0,48,0.00,,,0.00,847.00,VWS V14.01,2013-09-03 19:36:00,
2013-09-03 14:41:00,88.9,66.7,29.93,NE,35,1.0,6.0,48,0.00,,,0.00,849.00,VWS V14.01,2013-09-03 19:41:00,
2013-09-03 14:46:00,88.2,66.1,29.93,NNE,14,3.0,12.0,48,0.00,,,0.00,831.00,VWS V14.01,2013-09-03 19:46:00,
2013-09-03 14:51:00,88.4,65.6,29.93,North,5,0.0,4.0,47,0.00,,,0.00,833.00,VWS V14.01,2013-09-03 19:51:00,
2013-09-03 14:56:00,88.6,65.8,29.92,NW,307,2.0,7.0,47,0.00,,,0.00,812.00,VWS V14.01,2013-09-03 19:56:00,
2013-09-03 15:01:00,89.0,66.2,29.92,NNE,22,1.0,3.0,47,0.00,,,0.00,817.00,VWS V14.01,2013-09-03 20:01:00,
2013-09-03 15:06:00,88.8,66.6,29.92,NE,35,0.0,8.0,48,0.00,,,0.00,810.00,VWS V14.01,2013-09-03 20:06:00,
2013-09-03 15:11:00,88.9,67.3,29.92,NNE,25,1.0,4.0,49,0.00,,,0.00,800.00,VWS V14.01,2013-09-03 20:11:00,
2013-09-03 15:16:00,88.9,66.7,29.91,NE,42,4.0,13.0,48,0.00,,,0.00,766.00,VWS V14.01,2013-09-03 20:16:00,
2013-09-03 15:20:00,88.3,65.5,29.92,NNW,331,2.0,7.0,47,0.00,,,0.00,754.00,VWS V14.01,2013-09-03 20:20:00,
2013-09-03 15:25:00,88.3,65.5,29.91,NW,312,14.0,14.0,47,0.00,,,0.00,749.00,VWS V14.01,2013-09-03 20:25:00,
2013-09-03 15:30:00,88.1,65.3,29.91,NNW,327,13.0,13.0,47,0.00,,,0.00,738.00,VWS V14.01,2013-09-03 20:30:00,
2013-09-03 15:35:00,87.4,65.3,29.91,NW,317,10.0,14.0,48,0.00,,,0.00,726.00,VWS V14.01,2013-09-03 20:35:00,
2013-09-03 15:40:00,88.1,65.3,29.91,NW,314,8.0,10.0,47,0.00,,,0.00,714.00,VWS V14.01,2013-09-03 20:40:00,
2013-09-03 15:45:00,88.2,65.4,29.91,North,5,1.0,10.0,47,0.00,,,0.00,700.00,VWS V14.01,2013-09-03 20:45:00,
2013-09-03 15:50:00,88.2,63.6,29.91,WNW,301,9.0,11.0,44,0.00,,,0.00,689.00,VWS V14.01,2013-09-03 20:50:00,
2013-09-03 15:55:00,88.1,64.1,29.91,NNE,13,0.0,11.0,45,0.00,,,0.00,666.00,VWS V14.01,2013-09-03 20:55:00,
2013-09-03 16:00:00,88.4,65.6,29.91,NNE,17,1.0,3.0,47,0.00,,,0.00,659.00,VWS V14.01,2013-09-03 21:00:00,
2013-09-03 16:05:00,88.0,64.7,29.91,NNW,338,6.0,11.0,46,0.00,,,0.00,645.00,VWS V14.01,2013-09-03 21:05:00,
2013-09-03 16:10:00,87.6,64.9,29.91,NNW,334,3.0,3.0,47,0.00,,,0.00,626.00,VWS V14.01,2013-09-03 21:10:00,
2013-09-03 16:15:00,88.0,65.3,29.91,NW,322,0.0,8.0,47,0.00,,,0.00,613.00,VWS V14.01,2013-09-03 21:15:00,
2013-09-03 16:20:00,88.0,65.3,29.91,NNW,344,6.0,8.0,47,0.00,,,0.00,591.00,VWS V14.01,2013-09-03 21:20:00,
2013-09-03 16:25:00,87.9,65.8,29.91,NNW,328,2.0,8.0,48,0.00,,,0.00,582.00,VWS V14.01,2013-09-03 21:25:00,
2013-09-03 16:30:00,88.2,66.1,29.91,NNW,337,3.0,6.0,48,0.00,,,0.00,563.00,VWS V14.01,2013-09-03 21:30:00,
2013-09-03 16:35:00,88.1,66.0,29.91,NNE,17,5.0,6.0,48,0.00,,,0.00,548.00,VWS V14.01,2013-09-03 21:35:00,
2013-09-03 16:40:00,88.1,66.0,29.91,NE,40,1.0,1.0,48,0.00,,,0.00,534.00,VWS V14.01,2013-09-03 21:40:00,
2013-09-03 16:45:00,88.0,65.9,29.90,West,277,5.0,8.0,48,0.00,,,0.00,513.00,VWS V14.01,2013-09-03 21:45:00,
2013-09-03 16:50:00,87.8,65.1,29.90,North,355,2.0,8.0,47,0.00,,,0.00,494.00,VWS V14.01,2013-09-03 21:50:00,
2013-09-03 16:55:00,87.4,66.5,29.90,NNE,32,1.0,8.0,50,0.00,,,0.00,487.00,VWS V14.01,2013-09-03 21:55:00,
2013-09-03 17:00:00,87.6,66.7,29.90,NNE,22,4.0,6.0,50,0.00,,,0.00,464.00,VWS V14.01,2013-09-03 22:00:00,
2013-09-03 17:05:00,87.8,66.3,29.90,NE,44,6.0,10.0,49,0.00,,,0.00,459.00,VWS V14.01,2013-09-03 22:05:00,
2013-09-03 17:10:00,87.3,65.8,29.90,NNE,18,5.0,5.0,49,0.00,,,0.00,434.00,VWS V14.01,2013-09-03 22:10:00,
2013-09-03 17:15:00,87.0,66.1,29.90,North,5,1.0,8.0,50,0.00,,,0.00,413.00,VWS V14.01,2013-09-03 22:15:00,
2013-09-03 17:20:00,86.9,66.0,29.90,NE,40,4.0,4.0,50,0.00,,,0.00,397.00,VWS V14.01,2013-09-03 22:20:00,
2013-09-03 17:25:00,87.1,65.6,29.90,West,279,4.0,7.0,49,0.00,,,0.00,378.00,VWS V14.01,2013-09-03 22:25:00,
2013-09-03 17:30:00,87.2,65.7,29.90,NNW,338,2.0,3.0,49,0.00,,,0.00,359.00,VWS V14.01,2013-09-03 22:30:00,
2013-09-03 17:35:00,87.2,65.1,29.90,NNE,32,1.0,8.0,48,0.00,,,0.00,341.00,VWS V14.01,2013-09-03 22:35:00,
2013-09-03 17:40:00,86.6,65.2,29.90,North,355,2.0,4.0,49,0.00,,,0.00,322.00,VWS V14.01,2013-09-03 22:40:00,
2013-09-03 17:45:00,86.4,64.4,29.90,North,9,2.0,7.0,48,0.00,,,0.00,302.00,VWS V14.01,2013-09-03 22:45:00,
2013-09-03 17:50:00,86.3,63.7,29.91,NNW,347,3.0,3.0,47,0.00,,,0.00,290.00,VWS V14.01,2013-09-03 22:50:00,
2013-09-03 17:55:00,86.1,62.9,29.91,NNE,20,2.0,9.0,46,0.00,,,0.00,271.00,VWS V14.01,2013-09-03 22:55:00,
2013-09-03 18:00:00,85.9,62.7,29.91,NW,321,3.0,7.0,46,0.00,,,0.00,171.00,VWS V14.01,2013-09-03 23:00:00,
2013-09-03 18:05:00,85.7,61.9,29.91,NNW,331,3.0,8.0,45,0.00,,,0.00,40.00,VWS V14.01,2013-09-03 23:05:00,
2013-09-03 18:10:00,85.4,61.0,29.91,North,355,2.0,4.0,44,0.00,,,0.00,37.00,VWS V14.01,2013-09-03 23:10:00,
2013-09-03 18:15:00,85.1,59.5,29.91,North,351,5.0,11.0,42,0.00,,,0.00,35.00,VWS V14.01,2013-09-03 23:15:00,
2013-09-03 18:20:00,84.8,61.1,29.91,NNW,345,1.0,8.0,45,0.00,,,0.00,162.00,VWS V14.01,2013-09-03 23:20:00,
2013-09-03 18:25:00,84.6,62.8,29.91,North,355,1.0,8.0,48,0.00,,,0.00,120.00,VWS V14.01,2013-09-03 23:25:00,
2013-09-03 18:30:00,84.2,63.0,29.92,NNW,330,1.0,3.0,49,0.00,,,0.00,32.00,VWS V14.01,2013-09-03 23:30:00,
2013-09-03 18:35:00,84.0,63.4,29.91,North,349,4.0,6.0,50,0.00,,,0.00,76.00,VWS V14.01,2013-09-03 23:35:00,
2013-09-03 18:40:00,83.8,63.2,29.91,NNW,332,2.0,5.0,50,0.00,,,0.00,81.00,VWS V14.01,2013-09-03 23:40:00,
2013-09-03 18:45:00,83.7,63.1,29.92,North,360,2.0,9.0,50,0.00,,,0.00,63.00,VWS V14.01,2013-09-03 23:45:00,
2013-09-03 18:50:00,83.5,63.5,29.92,NE,38,4.0,5.0,51,0.00,,,0.00,49.00,VWS V14.01,2013-09-03 23:50:00,
2013-09-03 18:55:00,83.2,63.2,29.92,NNE,13,2.0,6.0,51,0.00,,,0.00,37.00,VWS V14.01,2013-09-03 23:55:00,
2013-09-03 19:00:00,82.9,63.5,29.92,ENE,61,0.0,2.0,52,0.00,,,0.00,26.00,VWS V14.01,2013-09-04 00:00:00,
2013-09-03 19:05:00,82.5,63.1,29.92,East,82,0.0,5.0,52,0.00,,,0.00,18.00,VWS V14.01,2013-09-04 00:05:00,
2013-09-03 19:10:00,82.1,62.8,29.92,East,88,1.0,3.0,52,0.00,,,0.00,12.00,VWS V14.01,2013-09-04 00:10:00,
2013-09-03 19:15:00,81.8,63.0,29.93,East,85,1.0,3.0,53,0.00,,,0.00,9.00,VWS V14.01,2013-09-04 00:15:00,
2013-09-03 19:21:00,81.5,62.7,29.93,East,86,1.0,3.0,53,0.00,,,0.00,5.00,VWS V14.01,2013-09-04 00:21:00,
2013-09-03 19:26:00,81.2,63.0,29.93,East,87,0.0,3.0,54,0.00,,,0.00,0.00,VWS V14.01,2013-09-04 00:26:00,
2013-09-03 19:31:00,80.9,62.7,29.93,ENE,76,1.0,2.0,54,0.00,,,0.00,0.00,VWS V14.01,2013-09-04 00:31:00,
2013-09-03 19:36:00,80.7,63.0,29.93,ENE,78,1.0,3.0,55,0.00,,,0.00,0.00,VWS V14.01,2013-09-04 00:36:00,
2013-09-03 19:41:00,80.5,62.9,29.93,ENE,78,1.0,2.0,55,0.00,,,0.00,0.00,VWS V14.01,2013-09-04 00:41:00,
2013-09-03 19:46:00,80.2,63.1,29.93,ENE,78,1.0,2.0,56,0.00,,,0.00,0.00,VWS V14.01,2013-09-04 00:46:00,
2013-09-03 19:51:00,80.0,62.9,29.93,ENE,78,0.0,1.0,56,0.00,,,0.00,0.00,VWS V14.01,2013-09-04 00:51:00,
2013-09-03 19:56:00,79.8,63.2,29.94,ENE,78,0.0,1.0,57,0.00,,,0.00,0.00,VWS V14.01,2013-09-04 00:56:00,
2013-09-03 20:01:00,79.6,63.0,29.94,ENE,77,0.0,0.0,57,0.00,,,0.00,0.00,VWS V14.01,2013-09-04 01:01:00,
2013-09-03 20:06:00,79.5,63.4,29.95,ENE,76,1.0,1.0,58,0.00,,,0.00,0.00,VWS V14.01,2013-09-04 01:06:00,
2013-09-03 20:11:00,79.3,63.3,29.95,ENE,77,0.0,1.0,58,0.00,,,0.00,0.00,VWS V14.01,2013-09-04 01:11:00,
2013-09-03 20:16:00,79.1,63.6,29.94,ENE,76,0.0,1.0,59,0.00,,,0.00,0.00,VWS V14.01,2013-09-04 01:16:00,
2013-09-03 20:21:00,78.9,63.4,29.95,ENE,77,0.0,1.0,59,0.00,,,0.00,0.00,VWS V14.01,2013-09-04 01:21:00,
2013-09-03 20:26:00,78.7,63.2,29.95,ENE,77,0.0,1.0,59,0.00,,,0.00,0.00,VWS V14.01,2013-09-04 01:26:00,
2013-09-03 20:31:00,78.7,63.2,29.95,ENE,76,0.0,1.0,59,0.00,,,0.00,0.00,VWS V14.01,2013-09-04 01:31:00,
2013-09-03 20:36:00,78.3,62.8,29.95,ENE,76,0.0,1.0,59,0.00,,,0.00,0.00,VWS V14.01,2013-09-04 01:36:00,
2013-09-03 20:41:00,78.1,63.1,29.95,ENE,76,0.0,1.0,60,0.00,,,0.00,0.00,VWS V14.01,2013-09-04 01:41:00,
2013-09-03 20:46:00,78.0,63.0,29.95,ENE,76,0.0,1.0,60,0.00,,,0.00,0.00,VWS V14.01,2013-09-04 01:46:00,
2013-09-03 20:51:00,77.8,63.3,29.95,ENE,76,1.0,1.0,61,0.00,,,0.00,0.00,VWS V14.01,2013-09-04 01:51:00,
2013-09-03 20:56:00,77.7,63.2,29.96,ENE,77,0.0,1.0,61,0.00,,,0.00,0.00,VWS V14.01,2013-09-04 01:56:00,
2013-09-03 21:01:00,77.6,63.1,29.96,ENE,76,0.0,0.0,61,0.00,,,0.00,0.00,VWS V14.01,2013-09-04 02:01:00,
2013-09-03 21:06:00,77.5,63.5,29.97,ENE,76,0.0,1.0,62,0.00,,,0.00,0.00,VWS V14.01,2013-09-04 02:06:00,
2013-09-03 21:11:00,77.4,63.4,29.97,ENE,76,0.0,1.0,62,0.00,,,0.00,0.00,VWS V14.01,2013-09-04 02:11:00,
2013-09-03 21:16:00,77.3,63.3,29.97,ENE,76,0.0,1.0,62,0.00,,,0.00,0.00,VWS V14.01,2013-09-04 02:16:00,
2013-09-03 21:21:00,77.2,63.6,29.97,ENE,76,0.0,0.0,63,0.00,,,0.00,0.00,VWS V14.01,2013-09-04 02:21:00,
2013-09-03 21:26:00,77.1,63.5,29.97,ENE,76,0.0,1.0,63,0.00,,,0.00,0.00,VWS V14.01,2013-09-04 02:26:00,
2013-09-03 21:31:00,76.9,63.4,29.97,ENE,76,0.0,0.0,63,0.00,,,0.00,0.00,VWS V14.01,2013-09-04 02:31:00,
2013-09-03 21:36:00,76.6,63.5,29.98,ENE,76,0.0,1.0,64,0.00,,,0.00,0.00,VWS V14.01,2013-09-04 02:36:00,
2013-09-03 21:41:00,76.4,63.8,29.98,ENE,76,0.0,0.0,65,0.00,,,0.00,0.00,VWS V14.01,2013-09-04 02:41:00,
2013-09-03 21:46:00,76.2,63.6,29.98,ENE,76,0.0,0.0,65,0.00,,,0.00,0.00,VWS V14.01,2013-09-04 02:46:00,
2013-09-03 21:51:00,76.0,63.8,29.98,ENE,76,0.0,0.0,66,0.00,,,0.00,0.00,VWS V14.01,2013-09-04 02:51:00,
2013-09-03 21:56:00,75.9,63.7,29.98,ENE,76,0.0,1.0,66,0.00,,,0.00,0.00,VWS V14.01,2013-09-04 02:56:00,
2013-09-03 22:01:00,75.7,63.5,29.98,ENE,76,0.0,0.0,66,0.00,,,0.00,0.00,VWS V14.01,2013-09-04 03:01:00,
2013-09-03 22:06:00,75.6,63.9,29.98,ENE,76,0.0,1.0,67,0.00,,,0.00,0.00,VWS V14.01,2013-09-04 03:06:00,
2013-09-03 22:11:00,75.4,63.7,29.98,ENE,76,0.0,0.0,67,0.00,,,0.00,0.00,VWS V14.01,2013-09-04 03:11:00,
2013-09-03 22:16:00,75.3,63.6,29.99,ENE,76,0.0,0.0,67,0.00,,,0.00,0.00,VWS V14.01,2013-09-04 03:16:00,
2013-09-03 22:21:00,75.2,63.9,29.98,ENE,76,0.0,0.0,68,0.00,,,0.00,0.00,VWS V14.01,2013-09-04 03:21:00,
2013-09-03 22:26:00,75.0,63.7,29.98,ENE,76,0.0,0.0,68,0.00,,,0.00,0.00,VWS V14.01,2013-09-04 03:26:00,
2013-09-03 22:31:00,74.7,63.9,29.98,ENE,76,0.0,0.0,69,0.00,,,0.00,0.00,VWS V14.01,2013-09-04 03:31:00,
2013-09-03 22:36:00,74.4,64.0,29.98,ENE,76,0.0,0.0,70,0.00,,,0.00,0.00,VWS V14.01,2013-09-04 03:36:00,
2013-09-03 22:41:00,74.1,63.7,29.99,ENE,76,0.0,0.0,70,0.00,,,0.00,0.00,VWS V14.01,2013-09-04 03:41:00,
2013-09-03 22:46:00,73.8,63.8,29.99,ENE,76,0.0,0.0,71,0.00,,,0.00,0.00,VWS V14.01,2013-09-04 03:46:00,
2013-09-03 22:51:00,73.5,63.9,29.99,ENE,76,0.0,0.0,72,0.00,,,0.00,0.00,VWS V14.01,2013-09-04 03:51:00,
2013-09-03 22:56:00,73.2,63.6,29.99,ENE,76,0.0,0.0,72,0.00,,,0.00,0.00,VWS V14.01,2013-09-04 03:56:00,
2013-09-03 23:01:00,73.0,63.5,29.99,ENE,76,0.0,0.0,72,0.00,,,0.00,0.00,VWS V14.01,2013-09-04 04:01:00,
2013-09-03 23:02:00,72.9,63.8,29.99,ENE,76,0.0,0.0,73,0.00,,,0.00,0.00,VWS V14.01,2013-09-04 04:02:00,
2013-09-03 23:03:00,72.9,63.8,29.99,ENE,76,0.0,0.0,73,0.00,,,0.00,0.00,VWS V14.01,2013-09-04 04:03:00,
2013-09-03 23:08:00,72.7,63.5,29.99,ENE,76,0.0,0.0,73,0.00,,,0.00,0.00,VWS V14.01,2013-09-04 04:08:00,
2013-09-03 23:13:00,72.6,63.8,29.99,ENE,76,0.0,0.0,74,0.00,,,0.00,0.00,VWS V14.01,2013-09-04 04:13:00,
2013-09-03 23:18:00,72.5,63.8,29.99,ENE,76,0.0,0.0,74,0.00,,,0.00,0.00,VWS V14.01,2013-09-04 04:18:00,
2013-09-03 23:23:00,72.4,64.0,29.99,ENE,76,0.0,1.0,75,0.00,,,0.00,0.00,VWS V14.01,2013-09-04 04:23:00,
2013-09-03 23:28:00,72.2,63.8,29.99,ENE,76,0.0,1.0,75,0.00,,,0.00,0.00,VWS V14.01,2013-09-04 04:28:00,
2013-09-03 23:33:00,72.2,63.8,29.98,ENE,76,0.0,2.0,75,0.00,,,0.00,0.00,VWS V14.01,2013-09-04 04:33:00,
2013-09-03 23:38:00,72.1,63.8,29.98,ENE,76,0.0,2.0,75,0.00,,,0.00,0.00,VWS V14.01,2013-09-04 04:38:00,
2013-09-03 23:43:00,72.1,63.8,29.99,ENE,76,0.0,1.0,75,0.00,,,0.00,0.00,VWS V14.01,2013-09-04 04:43:00,
2013-09-03 23:48:00,72.1,63.8,29.99,ENE,76,0.0,1.0,75,0.00,,,0.00,0.00,VWS V14.01,2013-09-04 04:48:00,
2013-09-03 23:53:00,72.0,64.0,29.99,ENE,76,0.0,0.0,76,0.00,,,0.00,0.00,VWS V14.01,2013-09-04 04:53:00,
2013-09-03 23:58:00,71.9,63.9,29.98,ENE,76,0.0,0.0,76,0.00,,,0.00,0.00,VWS V14.01,2013-09-04 04:58:00,